• In Österreich
  • Länderverzeichnis
  • Für 7 Tage
  • Wassertemperatur
  • Satellitenkarten
  • Wetterkarte
  • News
  • Widgets
  • user-avatar
    Anmelden

    Stündliche Wetter Victoria

    Heute, 23 Februar, Freitag

    Zeit Temperatur Niederschläge Wind Luftdruck Luftfeuchtigkeit
    00:00 +24°C° 0 mm 2 m/S 747 mmHg 55%
    01:00 +23°C° 0 mm 2 m/S 747 mmHg 55%
    02:00 +23°C° 0,1 mm 2 m/S 747 mmHg 56%
    03:00 +23°C° 0,1 mm 1 m/S 747 mmHg 57%
    04:00 +23°C° 0 mm 2 m/S 747 mmHg 54%
    05:00 +23°C° 0,1 mm 2 m/S 747 mmHg 54%
    06:00 +22°C° 0,1 mm 3 m/S 747 mmHg 54%
    07:00 +22°C° 0,1 mm 3 m/S 747 mmHg 54%
    08:00 +23°C° 0,1 mm 4 m/S 747 mmHg 52%
    09:00 +25°C° 0,1 mm 5 m/S 747 mmHg 51%
    10:00 +26°C° 0,1 mm 5 m/S 747 mmHg 49%
    11:00 +28°C° 0 mm 5 m/S 746 mmHg 43%
    12:00 +30°C° 0 mm 6 m/S 746 mmHg 37%
    13:00 +34°C° 0 mm 6 m/S 746 mmHg 32%
    14:00 +35°C° 0 mm 6 m/S 745 mmHg 30%
    15:00 +35°C° 0 mm 6 m/S 745 mmHg 29%
    16:00 +36°C° 0 mm 6 m/S 744 mmHg 27%
    17:00 +35°C° 0 mm 5 m/S 744 mmHg 30%
    18:00 +33°C° 0 mm 4 m/S 744 mmHg 33%
    19:00 +30°C° 0 mm 3 m/S 744 mmHg 36%
    20:00 +29°C° 0 mm 3 m/S 744 mmHg 38%
    21:00 +28°C° 0 mm 3 m/S 744 mmHg 40%
    22:00 +27°C° 0 mm 3 m/S 744 mmHg 42%
    23:00 +27°C° 0 mm 3 m/S 743 mmHg 43%

    Morgen, 24 Februar, Samstag

    Zeit Temperatur Niederschläge Wind Luftdruck Luftfeuchtigkeit
    00:00 +27°C° 0 mm 4 m/S 743 mmHg 43%
    01:00 +27°C° 0 mm 4 m/S 743 mmHg 44%
    02:00 +27°C° 0 mm 4 m/S 743 mmHg 45%
    03:00 +26°C° 0 mm 4 m/S 742 mmHg 47%
    04:00 +26°C° 0 mm 4 m/S 742 mmHg 49%
    05:00 +27°C° 0 mm 4 m/S 742 mmHg 50%
    06:00 +27°C° 0 mm 4 m/S 742 mmHg 52%
    07:00 +28°C° 0 mm 5 m/S 742 mmHg 53%
    08:00 +30°C° 0,2 mm 6 m/S 742 mmHg 50%
    09:00 +32°C° 0,2 mm 7 m/S 742 mmHg 47%
    10:00 +34°C° 0,2 mm 8 m/S 742 mmHg 44%
    11:00 +33°C° 0,2 mm 7 m/S 742 mmHg 47%
    12:00 +33°C° 0,2 mm 7 m/S 741 mmHg 50%
    13:00 +32°C° 0,2 mm 6 m/S 741 mmHg 52%
    14:00 +32°C° 0,4 mm 6 m/S 741 mmHg 52%
    15:00 +32°C° 0,4 mm 6 m/S 741 mmHg 53%
    16:00 +32°C° 0,4 mm 6 m/S 741 mmHg 53%
    17:00 +28°C° 0 mm 7 m/S 741 mmHg 59%
    18:00 +24°C° 0 mm 7 m/S 742 mmHg 66%
    19:00 +21°C° 0 mm 7 m/S 743 mmHg 72%
    20:00 +20°C° 0 mm 7 m/S 743 mmHg 72%
    21:00 +18°C° 0 mm 7 m/S 744 mmHg 71%
    22:00 +17°C° 0 mm 7 m/S 745 mmHg 71%
    23:00 +17°C° 0 mm 7 m/S 745 mmHg 71%

    übermorgen, 25 Februar, Sonntag

    Zeit Temperatur Niederschläge Wind Luftdruck Luftfeuchtigkeit
    00:00 +16°C° 0 mm 6 m/S 745 mmHg 71%
    01:00 +15°C° 0 mm 6 m/S 745 mmHg 72%
    02:00 +15°C° 0 mm 6 m/S 746 mmHg 71%
    03:00 +15°C° 0 mm 6 m/S 746 mmHg 71%
    04:00 +14°C° 0 mm 6 m/S 746 mmHg 71%
    05:00 +14°C° 0 mm 6 m/S 746 mmHg 69%
    06:00 +14°C° 0 mm 6 m/S 747 mmHg 67%
    07:00 +14°C° 0 mm 6 m/S 747 mmHg 65%
    08:00 +16°C° 0 mm 6 m/S 747 mmHg 58%
    09:00 +18°C° 0 mm 7 m/S 747 mmHg 51%
    10:00 +21°C° 0 mm 7 m/S 748 mmHg 43%
    11:00 +22°C° 0 mm 7 m/S 747 mmHg 39%
    12:00 +24°C° 0 mm 7 m/S 747 mmHg 35%
    13:00 +26°C° 0 mm 6 m/S 746 mmHg 31%
    14:00 +27°C° 0 mm 6 m/S 746 mmHg 30%
    15:00 +27°C° 0 mm 6 m/S 746 mmHg 29%
    16:00 +28°C° 0 mm 6 m/S 746 mmHg 28%
    17:00 +26°C° 0 mm 6 m/S 746 mmHg 32%
    18:00 +23°C° 0 mm 6 m/S 747 mmHg 36%
    19:00 +22°C° 0 mm 6 m/S 747 mmHg 40%
    20:00 +21°C° 0 mm 6 m/S 748 mmHg 45%
    21:00 +19°C° 0 mm 5 m/S 748 mmHg 49%
    22:00 +17°C° 0 mm 5 m/S 749 mmHg 54%
    23:00 +17°C° 0 mm 4 m/S 749 mmHg 57%

    26 Februar, Montag

    Zeit Temperatur Niederschläge Wind Luftdruck Luftfeuchtigkeit
    00:00 +17°C° 0 mm 4 m/S 749 mmHg 60%
    01:00 +16°C° 0 mm 3 m/S 749 mmHg 63%
    02:00 +14°C° 0 mm 3 m/S 749 mmHg 65%
    03:00 +14°C° 0 mm 3 m/S 750 mmHg 67%
    04:00 +14°C° 0 mm 2 m/S 750 mmHg 68%
    05:00 +15°C° 0 mm 2 m/S 750 mmHg 67%
    06:00 +15°C° 0 mm 2 m/S 751 mmHg 66%
    07:00 +15°C° 0 mm 2 m/S 751 mmHg 64%
    08:00 +18°C° 0 mm 3 m/S 751 mmHg 56%
    09:00 +21°C° 0 mm 3 m/S 751 mmHg 48%
    10:00 +25°C° 0 mm 3 m/S 751 mmHg 41%
    11:00 +27°C° 0 mm 3 m/S 750 mmHg 37%
    12:00 +28°C° 0 mm 2 m/S 750 mmHg 34%
    13:00 +30°C° 0 mm 2 m/S 749 mmHg 30%
    14:00 +31°C° 0 mm 2 m/S 749 mmHg 29%
    15:00 +31°C° 0 mm 2 m/S 748 mmHg 27%
    16:00 +32°C° 0 mm 2 m/S 748 mmHg 25%
    17:00 +30°C° 0 mm 2 m/S 748 mmHg 28%
    18:00 +28°C° 0 mm 1 m/S 748 mmHg 31%
    19:00 +27°C° 0 mm 1 m/S 749 mmHg 34%
    20:00 +26°C° 0 mm 2 m/S 749 mmHg 36%
    21:00 +25°C° 0 mm 2 m/S 749 mmHg 39%
    22:00 +24°C° 0 mm 2 m/S 750 mmHg 41%
    23:00 +22°C° 0 mm 3 m/S 750 mmHg 44%

    27 Februar, Dienstag

    Zeit Temperatur Niederschläge Wind Luftdruck Luftfeuchtigkeit
    00:00 +21°C° 0 mm 3 m/S 750 mmHg 47%
    01:00 +21°C° 0 mm 4 m/S 750 mmHg 50%
    02:00 +20°C° 0 mm 4 m/S 750 mmHg 53%
    03:00 +19°C° 0 mm 4 m/S 750 mmHg 55%
    04:00 +18°C° 0 mm 3 m/S 751 mmHg 58%
    05:00 +18°C° 0 mm 4 m/S 751 mmHg 59%
    06:00 +18°C° 0 mm 4 m/S 751 mmHg 61%
    07:00 +18°C° 0 mm 4 m/S 751 mmHg 62%
    08:00 +20°C° 0 mm 5 m/S 751 mmHg 56%
    09:00 +22°C° 0 mm 5 m/S 751 mmHg 50%
    10:00 +25°C° 0 mm 5 m/S 751 mmHg 44%
    11:00 +27°C° 0 mm 5 m/S 750 mmHg 38%
    12:00 +29°C° 0 mm 5 m/S 749 mmHg 32%
    13:00 +32°C° 0 mm 5 m/S 749 mmHg 26%
    14:00 +33°C° 0 mm 5 m/S 748 mmHg 24%
    15:00 +33°C° 0 mm 5 m/S 747 mmHg 22%
    16:00 +34°C° 0 mm 5 m/S 746 mmHg 20%
    17:00 +32°C° 0 mm 5 m/S 746 mmHg 23%
    18:00 +30°C° 0 mm 4 m/S 746 mmHg 26%
    19:00 +28°C° 0 mm 3 m/S 746 mmHg 29%
    20:00 +28°C° 0 mm 3 m/S 746 mmHg 29%
    21:00 +27°C° 0 mm 3 m/S 746 mmHg 30%
    22:00 +27°C° 0 mm 4 m/S 746 mmHg 30%
    23:00 +27°C° 0 mm 5 m/S 745 mmHg 33%

    28 Februar, Mittwoch

    Zeit Temperatur Niederschläge Wind Luftdruck Luftfeuchtigkeit
    00:00 +27°C° 0 mm 6 m/S 745 mmHg 35%
    01:00 +28°C° 0 mm 7 m/S 744 mmHg 38%
    02:00 +27°C° 0 mm 7 m/S 744 mmHg 42%
    03:00 +27°C° 0 mm 7 m/S 743 mmHg 46%
    04:00 +27°C° 0 mm 7 m/S 743 mmHg 51%
    05:00 +27°C° 0,1 mm 7 m/S 743 mmHg 53%
    06:00 +27°C° 0,1 mm 7 m/S 744 mmHg 55%
    07:00 +27°C° 0,1 mm 6 m/S 744 mmHg 57%
    08:00 +29°C° 0 mm 6 m/S 745 mmHg 53%
    09:00 +30°C° 0 mm 6 m/S 745 mmHg 49%
    10:00 +33°C° 0 mm 6 m/S 745 mmHg 44%
    11:00 +34°C° 0 mm 6 m/S 745 mmHg 37%
    12:00 +35°C° 0 mm 6 m/S 745 mmHg 31%
    13:00 +36°C° 0 mm 6 m/S 745 mmHg 24%
    14:00 +35°C° 0 mm 6 m/S 745 mmHg 21%
    15:00 +35°C° 0 mm 6 m/S 745 mmHg 19%
    16:00 +34°C° 0 mm 6 m/S 745 mmHg 17%
    17:00 +32°C° 0 mm 5 m/S 746 mmHg 21%
    18:00 +29°C° 0 mm 5 m/S 746 mmHg 25%
    19:00 +27°C° 0 mm 5 m/S 747 mmHg 29%
    20:00 +25°C° 0 mm 5 m/S 748 mmHg 35%
    21:00 +22°C° 0 mm 5 m/S 748 mmHg 42%
    22:00 +20°C° 0 mm 5 m/S 749 mmHg 48%
    23:00 +19°C° 0 mm 5 m/S 749 mmHg 53%
    Mehr zeigen